COSMOS 2251 DEB, 35724

Orbit data source: Space-Track

COSMOS 2251 DEB, 35724 is space debris in LEO originally from a launch on Wed, 16 Jun 1993 UTC launched from the Plesetsk Missile And Space Complex (PKMTR). The debris from Iridium 33, an American commercial communications satellite, has been tracked extensively since its accidental collision with the defunct Russian satellite Cosmos 2251 in 2009. This event, occurring at high speed in low Earth orbit (LEO), generated thousands of pieces of space debris, significantly increasing the risk of further collisions. The Iridium 33 debris cloud has impacted space traffic management and orbital debris mitigation strategies, making it a subject of ongoing study in space situational awareness.

Loading next visibility...
Identifier
35724, 1993-036AQV
Orbit
LEO
Country
Flag of CISCIS
Related business
Manufacturer
Unknown
Mission
Spacecraft
Bus & Motor
Unknown
Mass
Unknown
Launch date (UTC)
1993-06-16 (33 years ago)
Launch vehicle
Unknown
Launch site
Plesetsk Missile And Space Complex (PKMTR)
Object type
Payload
Rocket body
Debris
Shape & HBR
Unknown shape, 0.1 m
Radar Cross Section
Small (<0.1 m²)

Expand to show TLE details & history
Last TLE update: 1 day ago

TLE from 1 day ago
0 COSMOS 2251 DEB
1 35724U 93036AQV 26122.17565829  .00000920  00000-0  19945-3 0  9990
2 35724  74.0336  35.3184 0060172 154.5536 205.8614 14.58542357895760
Epoch: 2026-05-02T04:12Z
TLE epoch observation values (Epoch: 2026-05-02T04:12:56.876Z)
Latitude
0.00001°
Longitude
111.98409°
Altitude
738.892 km
Speed
7.465 km/s
True Right ascension
02h 21m 16s
True Declination
0° 00' 00"
Sunlit
Object was in daylight at epoch
Visualization orbit readout
Latitude
Unknown
Longitude
Unknown
Altitude
Unknown
Speed
Unknown
Apparent Right ascension
Unknown
Apparent Declination
Unknown
Sunlit
N/A
Visualization observer readout
Local Sidereal Time
23:35:13
Azimuth
Unknown
Elevation
Unknown
Doppler factor
Unknown
Orbital elements
Apogee altitude
738.047 km
Perigee altitude
652.92 km
Semi-major axis
7,073.621 km
Eccentricity
0.00602
Inclination
74.0336°
RAAN
35.3184°
Arg. of periapsis
154.5536°
True anomaly
205.56266°
Mean anomaly
205.8614°
Eccentric anomaly
205.71183°
Mean motion
3.64822 °/min
Orbital period
98.68 mins
BSTAR
0.00019945

Documentation

Showing up to 5 results
|